Weather History for KEED - May, 2014

Change the Weather History Date:

Thursday, May 15, 2014

  Actual Average (KIGM) Record (KIGM)
Temperature  
Mean Temperature 84 °F 68 °F  
Max Temperature 102 °F 85 °F 99 °F (1927)
Min Temperature 66 °F 52 °F 36 °F (1955)
Degree Days  
Heating Degree Days 0 2  
Month to date heating degree days 39  
Since 1 July heating degree days 3085  
Cooling Degree Days 19 5  
Month to date cooling degree days 56  
Year to date cooling degree days 87  
Growing Degree Days 34 (Base 50)    
Moisture  
Dew Point 10 °F    
Average Humidity 6    
Maximum Humidity 11    
Minimum Humidity 4    
Precipitation  
Precipitation 0.00 in 0.01 in 0.49 in (1951)
Month to date precipitation 0.09  
Year to date precipitation 3.42  
Sea Level Pressure  
Sea Level Pressure 29.93 in    
Wind  
Wind Speed 5 mph (West)    
Max Wind Speed 15 mph    
Max Gust Speed -    
Visibility 10 miles    
Events      
T = Trace of Precipitation, MM = Missing Value Source: NWS Daily Summary

Daily Weather History Graph

Daily Weather History Graph

Search for Another Location

Airport or City:

Trip Planner

Search our weather history database for the weather conditions in past years. The results will help you decide how hot, cold, wet, or windy it might be!

Date:

Astronomy

May. 15, 2014 Rise Set
Actual Time 5:35 AM PDT 7:34 PM PDT
Civil Twilight 5:07 AM PDT 8:02 PM PDT
Nautical Twilight 4:33 AM PDT 8:36 PM PDT
Astronomical Twilight 3:57 AM PDT 9:13 PM PDT
Moon 8:47 PM PDT (5/15) 6:25 AM PDT (5/15)
Length of Visible Light 14h 55m
Length of Day
13h 59m
Full, 99% of the Moon is Illuminated
May 15
Full
May 21
Last Quarter
May 28
New
Jun 5
First Quarter
Jun 12
Full

Hourly Weather History & Observations

Time (PDT) Temp. Dew Point Humidity Pressure Visibility Wind Dir Wind Speed Gust Speed Precip Events Conditions
12:56 AM 78.1 °F 8.1 °F 7% 29.96 in 10.0 mi NNW 5.8 mph - N/A   Clear
1:56 AM 73.0 °F 8.1 °F 8% 29.96 in 10.0 mi WSW 3.5 mph - N/A   Clear
2:56 AM 70.0 °F 8.1 °F 9% 29.97 in 10.0 mi WSW 6.9 mph - N/A   Clear
3:56 AM 68.0 °F 9.0 °F 10% 29.97 in 10.0 mi West 3.5 mph - N/A   Clear
4:56 AM 66.9 °F 10.0 °F 11% 29.97 in 10.0 mi Calm Calm - N/A   Clear
5:56 AM 66.0 °F 10.0 °F 11% 30.00 in 10.0 mi WNW 5.8 mph - N/A   Clear
6:56 AM 73.9 °F 12.0 °F 9% 30.01 in 10.0 mi North 3.5 mph - N/A   Clear
7:56 AM 77.0 °F 10.0 °F 8% 30.03 in 10.0 mi SE 3.5 mph - N/A   Clear
8:56 AM 81.0 °F 10.0 °F 7% 30.04 in 10.0 mi Calm Calm - N/A   Clear
9:56 AM 89.1 °F 10.9 °F 5% 30.03 in 10.0 mi ENE 3.5 mph - N/A   Clear
10:56 AM 91.9 °F 12.0 °F 5% 30.01 in 10.0 mi Variable 4.6 mph - N/A   Clear
11:56 AM 93.9 °F 9.0 °F 4% 29.99 in 10.0 mi Calm Calm - N/A   Clear
12:56 PM 97.0 °F 7.0 °F 4% 29.95 in 10.0 mi Calm Calm - N/A   Clear
1:56 PM 99.0 °F 8.1 °F 4% 29.92 in 10.0 mi NNE 5.8 mph - N/A   Clear
2:56 PM 100.9 °F 9.0 °F 4% 29.90 in 10.0 mi Variable 4.6 mph - N/A   Clear
3:56 PM 100.9 °F 9.0 °F 4% 29.87 in 10.0 mi Calm Calm - N/A   Clear
4:56 PM 102.0 °F 10.0 °F 4% 29.84 in 10.0 mi Variable 5.8 mph - N/A   Clear
5:56 PM 100.9 °F 10.9 °F 4% 29.83 in 10.0 mi Variable 3.5 mph - N/A   Clear
6:56 PM 100.0 °F 9.0 °F 4% 29.82 in 10.0 mi SW 4.6 mph - N/A   Clear
7:56 PM 96.1 °F 10.0 °F 4% 29.83 in 10.0 mi WSW 9.2 mph - N/A   Clear
8:56 PM 93.0 °F 10.0 °F 5% 29.85 in 10.0 mi WSW 13.8 mph - N/A   Clear
9:56 PM 90.0 °F 10.9 °F 5% 29.85 in 10.0 mi West 11.5 mph - N/A   Clear
10:56 PM 90.0 °F 10.9 °F 5% 29.84 in 10.0 mi WSW 15.0 mph - N/A   Clear
11:56 PM 86.0 °F 12.0 °F 6% 29.85 in 10.0 mi Variable 3.5 mph - N/A   Clear